Weather History for KFAR - December, 2012

Change the Weather History Date:

Monday, December 3, 2012

  Actual Average Record
Temperature  
Mean Temperature 36 °F 19 °F  
Max Temperature 50 °F 27 °F 55 °F (1941)
Min Temperature 22 °F 11 °F -33 °F (1886)
Degree Days  
Heating Degree Days 29 46  
Month to date heating degree days 82 137  
Since 1 July heating degree days 1991 2099  
Cooling Degree Days 0 0  
Month to date cooling degree days 0 0  
Year to date cooling degree days 795 551  
Moisture  
Dew Point 31 °F    
Average Humidity 71    
Maximum Humidity 89    
Minimum Humidity 53    
Precipitation  
Precipitation 0.06 in 0.02 in 0.70 in (1891)
Month to date precipitation 0.06 0.08  
Year to date precipitation 14.21 21.86  
Snow  
Snow 0.00 in 0.30 in 4.10 in (1927)
Month to date snowfall 0.0 1.0  
Since 1 July snowfall 8.4 9.6  
Snow Depth 0.00 in    
Sea Level Pressure  
Sea Level Pressure 29.63 in    
Wind  
Wind Speed 16 mph (WSW)    
Max Wind Speed 25 mph    
Max Gust Speed 31 mph    
Visibility 10 miles    
Events Rain    
T = Trace of Precipitation, MM = Missing Value Source: NWS Daily Summary

Daily Weather History Graph

Daily Weather History Graph

Search for Another Location

Airport or City:

Trip Planner

Search our weather history database for the weather conditions in past years. The results will help you decide how hot, cold, wet, or windy it might be!

Date:

Astronomy

Dec. 03, 2012 Rise Set
Actual Time 7:54 AM CST 4:39 PM CST
Civil Twilight 7:20 AM CST 5:14 PM CST
Nautical Twilight 6:41 AM CST 5:52 PM CST
Astronomical Twilight 6:05 AM CST 6:29 PM CST
Moon 9:38 PM CST (12/3) 11:09 AM CST (12/3)
Length of Visible Light 9h 54m
Length of Day
8h 44m
Waning Gibbous, 78% of the Moon is Illuminated
Dec 3
Waning Gibbous
Dec 6
Last Quarter
Dec 13
New
Dec 19
First Quarter
Dec 28
Full

Hourly Weather History & Observations

Time (CST) Temp. Windchill Dew Point Humidity Pressure Visibility Wind Dir Wind Speed Gust Speed Precip Events Conditions
12:53 AM 50.0 °F - 37.0 °F 61% 29.41 in 10.0 mi SSE 19.6 mph - N/A   Clear
1:53 AM 50.0 °F - 37.0 °F 61% 29.39 in 10.0 mi SSE 17.3 mph 25.3 mph N/A   Clear
2:53 AM 48.9 °F - 37.0 °F 64% 29.39 in 10.0 mi SSE 17.3 mph - N/A   Clear
3:53 AM 48.9 °F - 37.0 °F 64% 29.37 in 10.0 mi SSE 19.6 mph 27.6 mph N/A   Clear
4:53 AM 48.0 °F - 37.0 °F 66% 29.38 in 10.0 mi South 15.0 mph - N/A   Clear
5:53 AM 46.4 °F 40.4 °F 37.4 °F 71% 29.38 in 10.0 mi South 13.8 mph - N/A   Clear
6:53 AM 46.0 °F 40.6 °F 37.9 °F 73% 29.42 in 10.0 mi South 11.5 mph - N/A   Clear
7:53 AM 45.0 °F 40.1 °F 36.0 °F 71% 29.46 in 10.0 mi WSW 9.2 mph - N/A   Clear
8:53 AM 46.4 °F 41.5 °F 35.6 °F 66% 29.48 in 10.0 mi WNW 10.4 mph - N/A   Mostly Cloudy
9:53 AM 45.0 °F 38.9 °F 39.9 °F 82% 29.56 in 8.0 mi WNW 12.7 mph - 0.02 in Rain Light Rain
10:53 AM 45.0 °F 40.6 °F 41.0 °F 86% 29.58 in 10.0 mi WSW 8.1 mph - 0.04 in Rain Light Rain
11:53 AM 46.0 °F 38.8 °F 37.9 °F 73% 29.61 in 10.0 mi West 18.4 mph - 0.00 in   Scattered Clouds
12:53 PM 48.2 °F - 35.6 °F 62% 29.60 in 10.0 mi WNW 25.3 mph 32.2 mph N/A   Clear
1:53 PM 50.0 °F - 35.1 °F 57% 29.64 in 10.0 mi WNW 20.7 mph 32.2 mph N/A   Clear
2:53 PM 48.9 °F - 34.0 °F 56% 29.65 in 10.0 mi West 21.9 mph 26.5 mph N/A   Clear
3:53 PM 48.0 °F - 32.0 °F 54% 29.69 in 10.0 mi West 18.4 mph 23.0 mph N/A   Clear
4:53 PM 44.1 °F 34.6 °F 28.9 °F 55% 29.73 in 10.0 mi West 26.5 mph 33.4 mph N/A   Clear
5:53 PM 37.9 °F 30.9 °F 28.9 °F 70% 29.78 in 10.0 mi WNW 10.4 mph - N/A   Clear
6:53 PM 37.0 °F 28.5 °F 27.0 °F 67% 29.82 in 10.0 mi WNW 13.8 mph - N/A   Clear
7:53 PM 35.1 °F 24.5 °F 26.1 °F 70% 29.85 in 10.0 mi WNW 18.4 mph - N/A   Clear
8:53 PM 30.9 °F 18.4 °F 19.9 °F 64% 29.91 in 10.0 mi WNW 20.7 mph 26.5 mph N/A   Unknown
9:53 PM 27.0 °F 15.2 °F 15.1 °F 61% 29.96 in 10.0 mi WNW 15.0 mph - N/A   Clear
10:53 PM 24.1 °F 13.1 °F 12.9 °F 62% 29.96 in 10.0 mi WNW 11.5 mph - N/A   Clear
11:53 PM 21.2 °F 13.6 °F 14.0 °F 74% 29.97 in 10.0 mi West 5.8 mph - N/A   Clear